Satellite: NO-44
Catalog number: 26931
Epoch time:      11132.22286133
Element set:     749
Inclination:      067.0521 deg
RA of node:       076.1957 deg
Eccentricity:    0.0007145
Arg of perigee:   263.3725 deg
Mean anomaly:     096.6584 deg
Mean motion:   14.29656203 rev/day
Decay rate:        4.1e-07 rev/day^2
Epoch rev:           50178
Checksum:              298

Satellite: SO-50
Catalog number: 27607
Epoch time:      11132.32371735
Element set:     463
Inclination:      064.5579 deg
RA of node:       076.6520 deg
Eccentricity:    0.0068953
Arg of perigee:   329.1930 deg
Mean anomaly:     030.5135 deg
Mean motion:   14.71734181 rev/day
Decay rate:       5.64e-06 rev/day^2
Epoch rev:           45081
Checksum:              296

Satellite: CO-55
Catalog number: 27844
Epoch time:      11132.05035857
Element set:     107
Inclination:      098.7059 deg
RA of node:       141.2766 deg
Eccentricity:    0.0009247
Arg of perigee:   307.4425 deg
Mean anomaly:     052.5909 deg
Mean motion:   14.20805107 rev/day
Decay rate:       1.73e-06 rev/day^2
Epoch rev:           40778
Checksum:              301

Satellite: CO-57
Catalog number: 27848
Epoch time:      11131.98816547
Element set:      56
Inclination:      098.7126 deg
RA of node:       140.3927 deg
Eccentricity:    0.0009134
Arg of perigee:   312.2325 deg
Mean anomaly:     047.8082 deg
Mean motion:   14.20585479 rev/day
Decay rate:       1.59e-06 rev/day^2
Epoch rev:           40772
Checksum:              320

Satellite: AO-51
Catalog number: 28375
Epoch time:      11131.44204252
Element set:    0967
Inclination:      098.0955 deg
RA of node:       111.8265 deg
Eccentricity:    0.0083143
Arg of perigee:   181.0017 deg
Mean anomaly:     179.1020 deg
Mean motion:   14.40753575 rev/day
Decay rate:       1.11e-06 rev/day^2
Epoch rev:           36077
Checksum:              277

Satellite: CP3
Catalog number: 31129
Epoch time:      11131.63820934
Element set:     865
Inclination:      097.8999 deg
RA of node:       157.9596 deg
Eccentricity:    0.0101213
Arg of perigee:   294.9288 deg
Mean anomaly:     064.1411 deg
Mean motion:   14.52468230 rev/day
Decay rate:        8.9e-07 rev/day^2
Epoch rev:           21553
Checksum:              318

Satellite: CO-65
Catalog number: 32785
Epoch time:      11132.29380413
Element set:     987
Inclination:      097.8511 deg
RA of node:       196.8694 deg
Eccentricity:    0.0013633
Arg of perigee:   294.7176 deg
Mean anomaly:     065.2575 deg
Mean motion:   14.81977771 rev/day
Decay rate:      1.036e-05 rev/day^2
Epoch rev:           16422
Checksum:              340

Satellite: KKS-1
Catalog number: 33493
Epoch time:      11132.70616376
Element set:     571
Inclination:      098.1201 deg
RA of node:       260.8115 deg
Eccentricity:    0.0020445
Arg of perigee:   152.9683 deg
Mean anomaly:     207.2604 deg
Mean motion:   14.81647589 rev/day
Decay rate:      1.854e-05 rev/day^2
Epoch rev:           12426
Checksum:              289

Satellite: SOHLA-1
Catalog number: 33496
Epoch time:      11131.89660603
Element set:    0410
Inclination:      098.0770 deg
RA of node:       242.1018 deg
Eccentricity:    0.0005727
Arg of perigee:   234.4328 deg
Mean anomaly:     125.6339 deg
Mean motion:   14.69609502 rev/day
Decay rate:       2.17e-06 rev/day^2
Epoch rev:           12315
Checksum:              275

Satellite: TISAT-1
Catalog number: 36799
Epoch time:      11132.72313251
Element set:     846
Inclination:      098.1031 deg
RA of node:       200.6169 deg
Eccentricity:    0.0016060
Arg of perigee:   036.4025 deg
Mean anomaly:     323.8258 deg
Mean motion:   14.80522782 rev/day
Decay rate:      1.108e-05 rev/day^2
Epoch rev:            4506
Checksum:              268

Satellite: STUDSAT
Catalog number: 36801
Epoch time:      11132.80008139
Element set:     182
Inclination:      098.1091 deg
RA of node:       200.5502 deg
Eccentricity:    0.0014273
Arg of perigee:   024.4893 deg
Mean anomaly:     335.6991 deg
Mean motion:   14.80534621 rev/day
Decay rate:      3.092e-05 rev/day^2
Epoch rev:            4506
Checksum:              262

Satellite: RAX
Catalog number: 37223
Epoch time:      11089.46431449
Element set:    0122
Inclination:      071.9716 deg
RA of node:       212.4675 deg
Eccentricity:    0.0019443
Arg of perigee:   068.5267 deg
Mean anomaly:     291.7923 deg
Mean motion:   14.77296529 rev/day
Decay rate:       6.60e-06 rev/day^2
Epoch rev:           01926
Checksum:              313

Satellite: OOREOS
Catalog number: 37224
Epoch time:      11076.42207246
Element set:    0109
Inclination:      071.9712 deg
RA of node:       241.3960 deg
Eccentricity:    0.0017800
Arg of perigee:   096.5373 deg
Mean anomaly:     263.7815 deg
Mean motion:   14.76929834 rev/day
Decay rate:       8.68e-06 rev/day^2
Epoch rev:           01732
Checksum:              300

Satellite: FO-69
Catalog number: 37227
Epoch time:      11132.42264097
Element set:    0027
Inclination:      071.9691 deg
RA of node:       118.1246 deg
Eccentricity:    0.0017350
Arg of perigee:   342.4039 deg
Mean anomaly:     017.6539 deg
Mean motion:   14.76576752 rev/day
Decay rate:       3.78e-06 rev/day^2
Epoch rev:           00404
Checksum:              301

